Погода в Ключевке

Россия / Оренбургская область     51°21′59″N   55°48′02″E
темп.,
°C
ветер,
м/с
пор.,
м/с
влажн.,
%
обл.,
%
осадки,
мм/ч
давл.,
гПа
погр.,
м
17 мая, пн
пн1723:00+21ссв45435 0.0 102070
02:00+19вюв22460 0.0 102011
05:00+19ююв22443 0.0 102011
08:00+24ю223499 0.0 1021100
11:00+29ююв33263 0.0 1021836
14:00+31ю45175 0.0 10203737
17:00+31ююз33165 0.0 10193876
20:00+25в46412 0.0 101890
18 мая, вт
вт1823:00+19вюв511552 0.0 1020220
02:00+17в33580 0.0 101927
05:00+17в34570 0.0 101847
08:00+21всв12460 0.0 1018134
11:00+27св33340 0.0 1017681
14:00+29св44290 0.0 10161957
17:00+30св45281 0.0 10152889
20:00+22в495265 0.0 1015227
19 мая, ср
ср1923:00+19в226043 0.0 101517
02:00+18св3460100 0.0 101446
05:00+16св410660 0.0 1014180
08:00+18всв913725 0.0 1015525
11:00+22в1011560 0.0 10161134
14:00+25в10104634 0.0 10161971
17:00+25в99402 0.0 10152330
20:00+21всв813470 0.0 1016693
20 мая, чт
чт2023:00+17всв515590 0.0 1018441
02:00+15в716580 0.0 1019517
05:00+14в615580 0.0 1019426
08:00+16вюв814550 0.0 1020745
11:00+21вюв1012370 0.0 10191389
14:00+24юв1011340 0.0 10182057
17:00+23вюв8113777 0.0 10171794
20:00+21вюв81438100 0.0 1017843
21 мая, пт
пт2123:00+18ююв4747100 0.0 1017146
02:00+16вюв4746100 0.0 1017104
05:00+15юв3844100 0.0 1018196
08:00+17вюв3649100 0.1 1018302
11:00+20вюв3448100 0.1 1018807
14:00+24ю4646100 0.3 10181861
17:00+24з554751 0.3 1018816
20:00+22сз58560 0.0 1019320